Address 0xeaa02ce903722501451a71c5ba32673e7e8a1418

 

Overview

Balance:
1.820432622495904628 BNB

BNB Value:
$413.04 (@ $226.89/BNB)
Txn Hash
Block
From
To
Value [Txn Fee]
0x613dac99c77a9d8f5ebcdc2bd97aaa41fdad247d2f79d616733a33d27ce073dc52142682021-02-26 12:01:316 mins ago0xeaa02ce903722501451a71c5ba32673e7e8a1418OUT 0xa531014031ce6478edd4ac58c7cfd228c01d29910 BNB0.0005199612
0x8fdc6039e7a17f8d57d30a5ed5c1772bc7374a764ce727bd62f9f34cbe60a71252142332021-02-26 11:59:468 mins ago0xeaa02ce903722501451a71c5ba32673e7e8a1418OUT 0xa531014031ce6478edd4ac58c7cfd228c01d29910 BNB0.0005199612
0x7a01c90b3ac45f0c7fbf246a5cd25080de7c2812b9b4dd3187fb08daaa3a603352142132021-02-26 11:58:469 mins ago0xeaa02ce903722501451a71c5ba32673e7e8a1418OUT 0xa531014031ce6478edd4ac58c7cfd228c01d29910 BNB0.0005199612
0x0c5944eddf49d7e8ca6e45e73b90325436028286dfc2156ab0ca62d2203e202552142012021-02-26 11:58:109 mins ago0xeaa02ce903722501451a71c5ba32673e7e8a1418OUT 0xa531014031ce6478edd4ac58c7cfd228c01d29910 BNB0.0005199612
0xc2fc648245a63d35c1092d1b426f40d7f82500a218638a859c93d8dbbbbaed0d52141522021-02-26 11:55:4312 mins ago0xeaa02ce903722501451a71c5ba32673e7e8a1418OUT 0xa531014031ce6478edd4ac58c7cfd228c01d29910 BNB0.0005221029
0x2ab7334c79bb8b6fd835da2b29b02c49fc15e6a7abb6e33c40ce8fd8b0c0e62752140962021-02-26 11:52:5515 mins ago0xeaa02ce903722501451a71c5ba32673e7e8a1418OUT 0xa531014031ce6478edd4ac58c7cfd228c01d29910 BNB0.0024541099
0x97a866430759b40f0da50e4890d2f6dd2ca90387e234bd5e9313c363ce4defe552140862021-02-26 11:52:2515 mins ago0xeaa02ce903722501451a71c5ba32673e7e8a1418OUT 0xa531014031ce6478edd4ac58c7cfd228c01d29910 BNB0.0002800424
0xd4a12611fc136566124e9f4fb3bf0c11c13f168a84c1d6aea0ae3da4bc96e07852139592021-02-26 11:46:0421 mins ago0xeaa02ce903722501451a71c5ba32673e7e8a1418OUT 0xa531014031ce6478edd4ac58c7cfd228c01d29910 BNB0.0005222239
0x4f3b14893fa25b67f64b5bd93083ba4a04d7f5dbaf4f47e3998ad09ced2fada552139342021-02-26 11:44:4923 mins ago0xeaa02ce903722501451a71c5ba32673e7e8a1418OUT 0xa531014031ce6478edd4ac58c7cfd228c01d29910 BNB0.0026628107
0xcfda84aeaf9d6da6fda34b79c186d6af16b35f35b46fe7e3a787dd8c765370ad52139312021-02-26 11:44:4023 mins ago0xeaa02ce903722501451a71c5ba32673e7e8a1418OUT 0xa531014031ce6478edd4ac58c7cfd228c01d29910 BNB0.0002800424
0x68c060ab2fc7ad2edac22ccb9484a6c093b8b2f87c8eee126edd0d3516954deb52139182021-02-26 11:44:0123 mins ago0xeaa02ce903722501451a71c5ba32673e7e8a1418OUT 0xa531014031ce6478edd4ac58c7cfd228c01d29910 BNB0.0005222239
0x51afd2555fdae7564dcdcdb792748b8f6c653f05f9a2b5f1f261a380765484b752138742021-02-26 11:41:4926 mins ago0xeaa02ce903722501451a71c5ba32673e7e8a1418OUT 0xa531014031ce6478edd4ac58c7cfd228c01d29910 BNB0.0026628107
0xdb235d1deb40eb94f8edf1c1d2b5dcd0c67ca0a5e395ec0548dade646c231f9652138702021-02-26 11:41:3726 mins ago0xeaa02ce903722501451a71c5ba32673e7e8a1418OUT 0xa531014031ce6478edd4ac58c7cfd228c01d29910 BNB0.0005221876
0x9cdf49b2d13c37c13afac089f2d3b4923328727f0290a0594e3fce0aa2f5a0ba52138202021-02-26 11:39:0728 mins ago0xeaa02ce903722501451a71c5ba32673e7e8a1418OUT 0xa531014031ce6478edd4ac58c7cfd228c01d29910 BNB0.0005221029
0x22fa7957284c98ffc2020ef45facd21af43dce60ee9e45f19600d69b6aaf074752137962021-02-26 11:37:5530 mins ago0xeaa02ce903722501451a71c5ba32673e7e8a1418OUT 0xa531014031ce6478edd4ac58c7cfd228c01d29910 BNB0.00057460601
0x22afd1be982ae012a39823c1603902fb6474489d54a296762dfc762a7b0854c152137732021-02-26 11:36:4631 mins ago0xeaa02ce903722501451a71c5ba32673e7e8a1418OUT 0xa531014031ce6478edd4ac58c7cfd228c01d29910 BNB0.0005221029
0x168c8a69a824a47c61e8eee3d26cb8894f6712b5014211eec1b08ce8c24a263152137572021-02-26 11:35:5831 mins ago0xeaa02ce903722501451a71c5ba32673e7e8a1418OUT 0xa531014031ce6478edd4ac58c7cfd228c01d29910 BNB0.0072413176
0xe66e8f469fb2b542483dee78240455dc74feda21f3e2fc8213d35f8d8ddf7f1c52137192021-02-26 11:34:0433 mins ago0xeaa02ce903722501451a71c5ba32673e7e8a1418OUT 0xa531014031ce6478edd4ac58c7cfd228c01d29910 BNB0.0026628107
0xdb5ed3b771f30bf8c1a4661dd5d8b1d332671d9232fd3dc6d3077ed56fabefdd52137172021-02-26 11:33:5833 mins ago0xeaa02ce903722501451a71c5ba32673e7e8a1418OUT 0xa531014031ce6478edd4ac58c7cfd228c01d29910 BNB0.0006127561
0xd9cf70746a46a9b25bb1740e35faa8448427b90182a14a2adcd549ec1f08937552136182021-02-26 11:29:0138 mins ago0xeaa02ce903722501451a71c5ba32673e7e8a1418OUT 0xa531014031ce6478edd4ac58c7cfd228c01d29910 BNB0.0026630527
0x71febb3023da7344fbcbc7f29260f2a54c3dd88792d66d3f2eb0918f33048d0152135362021-02-26 11:24:5543 mins ago0xeaa02ce903722501451a71c5ba32673e7e8a1418OUT 0xa531014031ce6478edd4ac58c7cfd228c01d29910 BNB0.0005200822
0x4d28357d7661a2e85d864256314d151e0607eb26b2832c850b64603dbd3802cd52135272021-02-26 11:24:2843 mins ago0xeaa02ce903722501451a71c5ba32673e7e8a1418OUT 0xa531014031ce6478edd4ac58c7cfd228c01d29910 BNB0.0002800424
0x0bac1bcf4519e912c109cd387bc36d8e82b1ed9b21e1aed6da40e93f04d3278e52135092021-02-26 11:23:3444 mins ago0xeaa02ce903722501451a71c5ba32673e7e8a1418OUT 0xa531014031ce6478edd4ac58c7cfd228c01d29910 BNB0.0024477937
0xff2e3dfeef20b5bc1666d48cc87bbd87b6dd4e3113d75b93eab9a550e1159ae552134802021-02-26 11:22:0745 mins ago0xeaa02ce903722501451a71c5ba32673e7e8a1418OUT 0xa531014031ce6478edd4ac58c7cfd228c01d29910 BNB0.0005199612
0xe8373a4f08a36930661bcddae4658f57072915e69a3d4ce984ae907d1a602dd952134082021-02-26 11:18:3149 mins ago0xeaa02ce903722501451a71c5ba32673e7e8a1418OUT 0xa531014031ce6478edd4ac58c7cfd228c01d29910 BNB0.0006128771
[ Download CSV Export 
Latest 10 internal transactions
Parent Txn Hash Block From To Value
0xc35f359682f188d4a09276ebcade671787724dba8b46894d6a683c45c1d80ae051642652021-02-24 18:13:291 day 17 hrs ago Binance: WBNB Token0xeaa02ce903722501451a71c5ba32673e7e8a141876.98891442333526 BNB
0x83bd2140e046e681626bfc5751e2ee5df36ba9aad7dcf467805d5ca1d144f9af50386812021-02-20 8:15:426 days 3 hrs ago Binance: WBNB Token0xeaa02ce903722501451a71c5ba32673e7e8a14187.9 BNB
0x7c193f78b4cb96c886c5ccc004ecc00e90999c7e24d85e74274c1bab730e4d0e50167712021-02-19 12:59:396 days 23 hrs ago Binance: WBNB Token0xeaa02ce903722501451a71c5ba32673e7e8a14187 BNB
0xd3c3cc320d23d50719371fe3771ee2351b5e7f26aaecda641bf465178afd03d449912162021-02-18 14:54:467 days 21 hrs ago Binance: WBNB Token0xeaa02ce903722501451a71c5ba32673e7e8a14183 BNB
0x9f3cb9fcd47239d2a192e0f13f5329661042d5a42153bfc646f39824d9d7ad3b49775512021-02-18 3:28:158 days 8 hrs ago Binance: WBNB Token0xeaa02ce903722501451a71c5ba32673e7e8a14185 BNB
0xafadefe6fcf4cb6b9d452d4229175e35c798968850a38756414d83a95d1499c949597922021-02-17 12:38:178 days 23 hrs ago Binance: WBNB Token0xeaa02ce903722501451a71c5ba32673e7e8a14180.71680163815447 BNB
0x4b48df8c10b8d48b218dd615279ec0b59eeac74d2d1a32aad181e6d5ce3db73549576422021-02-17 10:50:399 days 1 hr ago Binance: WBNB Token0xeaa02ce903722501451a71c5ba32673e7e8a14180.0280900899956 BNB
0x5024175766de07dee2bf03dc41c7b93c57c8c0a57af7847047a93e87c34ed41749463112021-02-17 1:21:289 days 10 hrs ago Binance: WBNB Token0xeaa02ce903722501451a71c5ba32673e7e8a14181.19458721636676 BNB
0x98fc7e785dfe31bee4f92e495cbb2c7b838f23ce04f9df9c4ed1c381af207da349200022021-02-16 3:20:1510 days 8 hrs ago Binance: WBNB Token0xeaa02ce903722501451a71c5ba32673e7e8a14185.181 BNB
0xfd42690e8e6173a6a851ab6d68a87b488a8f07996c74e1fef6799baeebc9824b48582882021-02-13 23:48:5912 days 12 hrs ago Binance: WBNB Token0xeaa02ce903722501451a71c5ba32673e7e8a14183.28 BNB
[ Download CSV Export 
Loading

Contract Name:
0 BNB

Compiler Version
0

Optimization Enabled:
0 BNB

Other Settings:
-NA-
Block Transaction Gas Used Reward
Age Block Fee Address BC Fee Address Voting Power Jailed Incoming
Block Uncle Number Difficulty Gas Used Reward
Loading
Loading
Make sure to use the "Vote Down" button for any spammy posts, and the "Vote Up" for interesting conversations.